This is the latest recevied weather packets stored in our database for station/object Ummendorf. If no packets are shown the sender has not sent any weather packets the latest 10 day(s).
| Time | Temp. | Humidity | Pressure | Rain* | Wind** | Luminosity | Snow |
|---|---|---|---|---|---|---|---|
| 1777856531 | 11.11° C | 52% | 1015.3 hPa | 0 mm | - | - | - |
| 1777854730 | 11.67° C | 50% | 1015.5 hPa | 0 mm | - | - | - |
| 1777852928 | 11.67° C | 50% | 1015.6 hPa | 0 mm | - | - | - |
| 1777851129 | 11.67° C | 50% | 1015.8 hPa | 0 mm | - | - | - |
| 1777849329 | 12.22° C | 49% | 1015.8 hPa | 0 mm | - | - | - |
| 1777847530 | 12.78° C | 48% | 1016 hPa | 0 mm | - | - | - |
| 1777843930 | 14.44° C | 42% | 1015.3 hPa | 0 mm | - | - | - |
| 1777842131 | 15.56° C | 39% | 1015.1 hPa | 0 mm | - | - | - |
| 1777840329 | 16.67° C | 36% | 1014.7 hPa | 0 mm | - | - | - |
| 1777838531 | 17.22° C | 33% | 1014.3 hPa | 0 mm | - | - | - |
| 1777836730 | 18.33° C | 34% | 1014.1 hPa | 0 mm | - | - | - |
| 1777834930 | 20° C | 37% | 1013.3 hPa | 0 mm | - | - | - |
| 1777833130 | 21.11° C | 32% | 1012.7 hPa | 0 mm | - | - | - |
| 1777831330 | 22.22° C | 29% | 1012.2 hPa | 0 mm | - | - | - |
| 1777829530 | 22.78° C | 24% | 1012.2 hPa | 0 mm | - | - | - |
| 1777827731 | 22.78° C | 25% | 1012.4 hPa | 0 mm | - | - | - |
| 1777825930 | 23.89° C | 22% | 1012.3 hPa | 0 mm | - | - | - |
| 1777824131 | 25.56° C | 15% | 1012.2 hPa | 0 mm | - | - | - |
| 1777822330 | 25.56° C | 14% | 1012.2 hPa | 0 mm | - | - | - |
| 1777820530 | 26.67° C | 13% | 1012.2 hPa | 0 mm | - | - | - |
| 1777818730 | 25.56° C | 14% | 1012.4 hPa | 0 mm | - | - | - |
| 1777816930 | 25° C | 20% | 1012.8 hPa | 0 mm | - | - | - |
| 1777815131 | 24.44° C | 24% | 1013.2 hPa | 0 mm | - | - | - |
| 1777813330 | 25° C | 22% | 1013.4 hPa | 0 mm | - | - | - |
| 1777811536 | 25.56° C | 21% | 1013.7 hPa | 0 mm | - | - | - |
* Rain since midnight (hover to see other rain measurements)
** Current wind speed in m/s (hover to see current wind gust speed)